Naples, Italy

3:34 AM CET on February 08, 2016 (GMT +0100)
Capodichino Mil

Weather History for LIRN - November, 2012

Change the Weather History Date:

Thursday, November 29, 2012

  Actual Average Record
Temperature  
Mean Temperature 58 °F -  
Max Temperature 62 °F 56 °F 71 °F (2014)
Min Temperature 53 °F 41 °F 39 °F (2015)
Degree Days  
Heating Degree Days 8    
Growing Degree Days 8 (Base 50)    
Moisture  
Dew Point 48 °F    
Average Humidity 71    
Maximum Humidity 94    
Minimum Humidity 59    
Precipitation  
Precipitation 0.00 in 0.16 in - ()
Sea Level Pressure  
Sea Level Pressure 29.42 in    
Wind  
Wind Speed 14 mph ()    
Max Wind Speed 23 mph    
Max Gust Speed 38 mph    
Visibility 5.6 miles    
Events Rain , Thunderstorm    
Averages and records for this station are not official NWS values.
T = Trace of Precipitation, MM = Missing Value Source: Averaged Metar Reports

Daily Weather History Graph

Daily Weather History Graph

Search for Another Location

Airport or City:

Trip Planner

Search our weather history database for the weather conditions in past years. The results will help you decide how hot, cold, wet, or windy it might be!

Date:

Astronomy

Nov. 29, 2012 Rise Set
Actual Time 7:06 AM CET 4:36 PM CET
Civil Twilight 6:35 AM CET 5:06 PM CET
Nautical Twilight 6:01 AM CET 5:40 PM CET
Astronomical Twilight 5:28 AM CET 6:13 PM CET
Moon 5:24 PM CET (11/29) 7:38 AM CET (11/29)
Length of Visible Light 10h 30m
Length of Day
9h 30m
Full, 99% of the Moon is Illuminated
Nov 29
Full
Dec 6
Last Quarter
Dec 13
New
Dec 20
First Quarter
Dec 28
Full

Hourly Weather History & Observations

Time (CET) Temp. Dew Point Humidity Pressure Visibility Wind Dir Wind Speed Gust Speed Precip Events Conditions
12:20 AM 59.0 °F 46.4 °F 63% 29.47 in 6.2 mi SSW 16.1 mph 27.6 mph N/A   Scattered Clouds
12:50 AM 59.0 °F 44.6 °F 59% 29.47 in 6.2 mi SSW 13.8 mph - N/A   Scattered Clouds
1:20 AM 53.6 °F 46.4 °F 77% 29.47 in 5.0 mi SSW 19.6 mph 36.8 mph N/A Rain , Thunderstorm Light Thunderstorms and Rain
1:50 AM 53.6 °F 46.4 °F 77% 29.44 in 3.1 mi SW 19.6 mph 31.1 mph N/A Rain , Thunderstorm Light Thunderstorms and Rain
2:20 AM 55.4 °F 50.0 °F 82% 29.44 in 5.0 mi SSW 9.2 mph - N/A Thunderstorm Mostly Cloudy
2:50 AM 57.2 °F 46.4 °F 67% 29.44 in 5.0 mi SW 11.5 mph - N/A Thunderstorm Mostly Cloudy
3:20 AM 55.4 °F 46.4 °F 72% 29.44 in 5.0 mi SW 19.6 mph 33.4 mph N/A Thunderstorm Thunderstorm
3:50 AM 57.2 °F 46.4 °F 67% 29.44 in 5.0 mi SW 12.7 mph - N/A Thunderstorm Mostly Cloudy
5:20 AM 55.4 °F 46.4 °F 72% 29.44 in 3.1 mi SW 18.4 mph 31.1 mph N/A Rain Rain
5:50 AM 55.4 °F 46.4 °F 72% 29.42 in 5.0 mi South 10.4 mph - N/A   Mostly Cloudy
6:20 AM 53.6 °F 46.4 °F 77% 29.42 in 5.0 mi SW 17.3 mph 29.9 mph N/A Rain Light Rain
6:50 AM 53.6 °F 48.2 °F 82% 29.42 in 5.0 mi SSE 9.2 mph 24.2 mph N/A Rain Light Rain
7:20 AM 57.2 °F 48.2 °F 72% 29.42 in 6.2 mi South 15.0 mph - N/A Rain Light Rain
7:50 AM 57.2 °F 48.2 °F 72% 29.42 in 6.2 mi SSW 12.7 mph - N/A Thunderstorm Mostly Cloudy
8:20 AM - - N/A% - 6.2 mi WSW 8.1 mph - N/A Rain , Thunderstorm Rain
8:50 AM 59.0 °F 48.2 °F 67% 29.42 in 6.2 mi SSW 15.0 mph - N/A   Mostly Cloudy
9:20 AM 59.0 °F 48.2 °F 67% 29.42 in 6.2 mi SSW 15.0 mph - N/A   Mostly Cloudy
9:50 AM 59.0 °F 48.2 °F 67% 29.42 in 6.2 mi SSW 12.7 mph 25.3 mph N/A   Mostly Cloudy
10:20 AM 59.0 °F 48.2 °F 67% 29.42 in 6.2 mi SSW 18.4 mph 33.4 mph N/A   Mostly Cloudy
10:50 AM 53.6 °F 51.8 °F 94% 29.42 in 1.6 mi SW 23.0 mph 38.0 mph N/A Rain , Thunderstorm Heavy Thunderstorms and Rain
11:20 AM 59.0 °F 51.8 °F 77% 29.42 in 6.2 mi SSW 17.3 mph 28.8 mph N/A   Mostly Cloudy
11:50 AM 60.8 °F 51.8 °F 72% 29.39 in 6.2 mi SSW 16.1 mph 35.7 mph N/A   Mostly Cloudy
12:20 PM 59.0 °F 51.8 °F 77% 29.39 in 6.2 mi SSW 15.0 mph - N/A   Mostly Cloudy
12:50 PM 60.8 °F 48.2 °F 63% 29.39 in 6.2 mi SW 19.6 mph 34.5 mph N/A   Mostly Cloudy
1:20 PM 60.8 °F 48.2 °F 63% 29.39 in 6.2 mi SW 17.3 mph 34.5 mph N/A   Mostly Cloudy
1:50 PM 60.8 °F 48.2 °F 63% 29.39 in 6.2 mi SW 17.3 mph - N/A   Mostly Cloudy
2:20 PM 62.6 °F 48.2 °F 59% 29.39 in 6.2 mi SW 17.3 mph 28.8 mph N/A   Mostly Cloudy
2:50 PM 60.8 °F 48.2 °F 63% 29.39 in 6.2 mi SW 15.0 mph 26.5 mph N/A   Mostly Cloudy
3:20 PM 60.8 °F 46.4 °F 59% 29.39 in 6.2 mi SSW 18.4 mph 33.4 mph N/A   Mostly Cloudy
3:50 PM 60.8 °F 48.2 °F 63% 29.39 in 6.2 mi SSW 15.0 mph 31.1 mph N/A   Mostly Cloudy
4:20 PM 60.8 °F 48.2 °F 63% 29.39 in 6.2 mi SSW 16.1 mph 29.9 mph N/A   Mostly Cloudy
4:50 PM 59.0 °F 50.0 °F 72% 29.39 in 6.2 mi SW 18.4 mph 34.5 mph N/A Rain Light Rain
5:20 PM 60.8 °F 48.2 °F 63% 29.39 in 6.2 mi SW 18.4 mph 33.4 mph N/A   Mostly Cloudy
5:50 PM 60.8 °F 48.2 °F 63% 29.39 in - North - - N/A   Mostly Cloudy
6:20 PM 60.8 °F 48.2 °F 63% 29.39 in 6.2 mi SW 19.6 mph 33.4 mph N/A Rain Light Rain
6:50 PM 59.0 °F 50.0 °F 72% 29.39 in 6.2 mi SW 13.8 mph 25.3 mph N/A   Mostly Cloudy
7:20 PM 59.0 °F 50.0 °F 72% 29.39 in 5.0 mi SW 19.6 mph - N/A Rain Rain
7:50 PM 57.2 °F 50.0 °F 77% 29.39 in 5.0 mi SW 16.1 mph - N/A Rain Rain
8:20 PM 57.2 °F 50.0 °F 77% 29.42 in 5.0 mi WSW 23.0 mph - N/A Rain Rain
8:50 PM 55.4 °F 50.0 °F 82% 29.42 in 5.0 mi SW 17.3 mph 31.1 mph N/A Rain Rain
9:20 PM 57.2 °F 48.2 °F 72% 29.42 in 5.0 mi SW 13.8 mph - N/A Rain Rain
9:50 PM 57.2 °F 48.2 °F 72% 29.42 in 6.2 mi SW 13.8 mph 26.5 mph N/A   Scattered Clouds
10:20 PM 57.2 °F 50.0 °F 77% 29.42 in 6.2 mi SW 8.1 mph - N/A   Scattered Clouds
10:50 PM 59.0 °F 50.0 °F 72% 29.44 in 6.2 mi SW 15.0 mph - N/A   Mostly Cloudy
11:20 PM 57.2 °F 46.4 °F 67% 29.44 in 6.2 mi SW 10.4 mph - N/A Rain Light Rain
11:50 PM 57.2 °F 50.0 °F 77% 29.44 in 6.2 mi WSW 13.8 mph - N/A Rain Light Rain